RH
60 64 79 86 83 78 78 83 82 86 90 93 92 85 81 85 82 87 85 92 97 92 97 91 86 82 87 92 72 69 65 57 58 62 60 55 53 57 58 59 61 60 59 60
59 60 64 82 84 79 78 82 87 89 87 89 84 75 71 72 74 75 77 85 90 95 97 93 86 79 75 69 63 60 59 54 53 51 48 45 46 45 47 50 50 52 52 50
56 59 59 63 64 71 73 78 83 81 80 83 78 74 67 63 63 66 67 73 83 82 92 88 84 77 74 71 63 55 49 45 46 47 45 43 43 46 49 48 48 45 43 41
58 59 60 43 53 57 63 70 73 78 78 82 76 75 59 60 62 57 54 54 55 67 79 81 77 73 69 63 58 55 51 49 47 45 45 47 45 42 43 44 42 41 40 40
54 47 42 40 49 51 52 42 55 61 72 73 69 66 63 62 60 60 52 47 49 54 59 70 73 74 68 62 56 53 50 49 49 49 48 48 49 51 51 50 51 48 45 48
52 52 41 29 32 39 44 36 39 50 61 67 66 67 62 56 56 48 47 49 49 57 58 68 73 67 65 63 57 53 50 44 44 46 49 51 53 55 56 58 59 54 50 52
48 44 28 26 27 36 32 26 35 38 45 41 49 54 55 52 52 51 47 42 39 42 40 51 68 79 77 72 65 59 54 53 57 56 56 57 59 62 66 66 66 66 61 58
39 40 29 21 31 31 23 24 26 31 32 28 28 31 30 32 36 33 33 30 27 29 28 28 38 55 74 76 74 70 66 66 63 63 56 51 54 60 67 69 70 73 72 67
30 27 17 20 22 23 24 21 21 22 22 20 21 20 22 22 22 22 21 20 18 16 16 18 21 32 36 58 67 72 72 70 70 69 66 61 61 67 76 79 80 72 66 58
27 19 18 17 18 20 20 17 17 19 20 17 13 12 12 12 11 11 10 10 9 10 9 9 11 17 20 22 28 38 47 65 70 72 73 70 74 74 72 69 66 66 64 63
22 18 19 18 16 17 16 16 16 17 17 13 10 10 10 9 9 8 8 9 9 8 8 8 8 9 11 14 15 14 16 22 36 52 59 64 67 82 89 87 78 68 68 68
19 11 12 12 12 15 14 14 15 17 16 14 11 11 10 9 8 8 8 9 10 10 10 9 9 8 7 7 6 6 6 7 8 10 12 13 20 25 35 37 38 43 43 39
10 8 10 10 12 13 13 14 15 16 16 16 14 14 13 13 13 13 12 12 12 12 12 12 11 10 9 8 7 7 6 6 6 5 5 5 5 6 7 8 8 9 9 9
11 9 13 12 12 13 14 15 17 18 18 18 18 17 17 17 16 16 16 16 16 16 16 17 17 16 14 13 11 9 9 8 8 7 7 7 8 8 8 8 8 9 9 9
12 12 10 11 14 15 16 16 17 18 19 20 19 19 18 18 17 17 17 17 17 17 17 17 17 18 18 17 16 15 14 13 12 11 11 10 10 10 10 10 10 10 11 11
12 13 13 13 14 16 17 18 19 20 21 21 20 19 18 19 18 17 17 16 15 15 15 16 18 18 18 18 18 17 16 15 14 14 14 13 12 12 12 12 12 11 11 12
11 12 12 12 12 13 14 14 15 15 16 16 16 16 15 16 17 18 19 20 19 19 19 18 17 16 17 18 18 19 18 18 18 18 18 17 16 15 15 15 14 14 14 14
6 6 7 8 9 11 12 13 14 14 15 14 15 16 16 17 18 20 20 20 22 22 21 20 19 20 20 17 17 17 18 19 20 20 20 20 20 20 20 19 18 17 17 17
7 7 7 8 9 10 11 12 13 13 14 14 15 15 16 17 19 21 24 28 30 30 29 27 26 26 21 21 21 20 17 17 17 18 20 21 22 23 23 23 23 23 22 20
10 9 9 10 10 11 12 12 13 14 14 15 16 16 17 18 21 22 25 27 31 34 34 36 37 35 38 35 28 25 24 22 19 17 17 19 21 22 23 24 24 25 27 27
10 9 9 10 11 12 13 13 14 15 16 16 17 19 20 23 27 27 29 32 33 35 35 36 39 42 43 45 43 40 36 33 30 27 23 20 18 17 18 21 23 25 27 29
11 10 9 10 11 13 14 16 16 18 19 20 22 24 26 28 31 32 33 35 35 38 39 39 40 41 41 43 48 49 46 44 41 38 36 34 32 28 25 23 21 21 24 28
15 13 12 14 14 15 18 20 21 20 22 23 25 26 30 32 34 34 32 37 36 38 40 40 41 41 41 43 44 47 51 51 48 44 42 42 42 40 39 38 34 30 27 25
20 18 17 16 16 17 21 21 20 22 23 24 26 30 33 37 37 36 37 36 38 41 42 42 42 43 44 43 44 45 46 48 51 53 54 53 50 50 49 47 44 44 43 40
25 22 21 20 21 22 23 23 22 23 26 27 29 30 33 37 38 35 37 39 40 42 44 45 45 46 47 48 49 49 50 52 54 56 59 60 60 59 60 60 59 55 51 50
34 31 29 28 27 26 26 25 23 23 25 28 31 31 32 35 36 37 40 40 40 42 44 45 46 48 50 50 50 50 51 52 52 54 56 60 64 66 67 67 68 69 63 58
42 42 42 41 39 36 32 29 27 28 29 30 30 31 31 33 35 37 39 39 38 38 40 43 44 45 47 48 49 50 51 52 53 53 54 56 58 63 67 68 68 69 69 65